{"data":{"norad_id":69878,"epoch":"2026-09-19T11:04:29.927136Z","epoch_age_seconds":111361,"freshness":"FRESH","line1":"1 69878U 26156K   26262.46145749  .00000754  00000+0  80266-4 0  9997","line2":"2 69878  97.7426 161.6470 0005232 262.7243  97.3381 14.91810158 11054","mean_motion":14.91810158,"eccentricity":0.0005232,"inclination_deg":97.7426,"raan_deg":161.647,"arg_perigee_deg":262.7243,"mean_anomaly_deg":97.3381,"bstar":8.0266e-5,"rev_number":1105,"period_min":96.527027402102,"perigee_km":588.64443144645,"apogee_km":595.93828768189,"semimajor_km":6970.4283595642,"source":"CELESTRAK","updated_at":"2026-09-20T09:00:25.164732Z"}}